This is the latest recevied weather packets stored in our database for station/object WB6ANP. If no packets are shown the sender has not sent any weather packets the latest 10 day(s).
| Time | Temp. | Humidity | Pressure | Rain* | Wind** | Luminosity | Snow |
|---|---|---|---|---|---|---|---|
| 1777320607 | 33.33° C | 33% | 1008.7 hPa | 0 mm | - | 786 W/m² | - |
| 1777320304 | 32.78° C | 36% | 1008.5 hPa | 0 mm | - | 803 W/m² | - |
| 1777320000 | 32.78° C | 32% | 1008.8 hPa | 0 mm | - | 806 W/m² | - |
| 1777319698 | 32.78° C | 31% | 1008.7 hPa | 0 mm | - | 820 W/m² | - |
| 1777319394 | 32.78° C | 31% | 1008.6 hPa | 0 mm | - | 825 W/m² | - |
| 1777319092 | 33.33° C | 34% | 1008.6 hPa | 0 mm | - | 841 W/m² | - |
| 1777318789 | 33.33° C | 34% | 1008.7 hPa | 0 mm | - | 850 W/m² | - |
| 1777318484 | 32.78° C | 33% | 1008.8 hPa | 0 mm | - | 860 W/m² | - |
| 1777318182 | 32.78° C | 30% | 1008.8 hPa | 0 mm | - | 868 W/m² | - |
| 1777317879 | 32.22° C | 34% | 1008.6 hPa | 0 mm | - | 875 W/m² | - |
| 1777317575 | 32.22° C | 36% | 1008.8 hPa | 0 mm | - | 881 W/m² | - |
| 1777317273 | 32.22° C | 36% | 1008.9 hPa | 0 mm | - | 884 W/m² | - |
| 1777316968 | 32.22° C | 36% | 1008.9 hPa | 0 mm | - | 893 W/m² | - |
| 1777316666 | 32.22° C | 38% | 1008.8 hPa | 0 mm | - | 899 W/m² | - |
| 1777316362 | 32.22° C | 34% | 1009 hPa | 0 mm | - | 912 W/m² | - |
| 1777316060 | 32.22° C | 38% | 1009 hPa | 0 mm | - | 913 W/m² | - |
| 1777315758 | 32.22° C | 34% | 1008.9 hPa | 0 mm | - | 903 W/m² | - |
| 1777315455 | 31.67° C | 38% | 1008.9 hPa | 0 mm | - | 901 W/m² | - |
| 1777315153 | 31.67° C | 38% | 1008.8 hPa | 0 mm | - | 905 W/m² | - |
| 1777314849 | 31.67° C | 40% | 1008.8 hPa | 0 mm | - | 907 W/m² | - |
| 1777314545 | 31.67° C | 40% | 1008.9 hPa | 0 mm | - | 904 W/m² | - |
| 1777314242 | 31.67° C | 41% | 1008.9 hPa | 0 mm | - | 916 W/m² | - |
| 1777313940 | 32.22° C | 40% | 1008.8 hPa | 0 mm | - | 914 W/m² | - |
| 1777313637 | 31.67° C | 38% | 1008.9 hPa | 0 mm | - | 918 W/m² | - |
| 1777313335 | 31.11° C | 43% | 1009.1 hPa | 0 mm | - | 921 W/m² | - |
* Rain latest hour (hover to see other rain measurements)
** Current wind speed in m/s (hover to see current wind gust speed)